Regional Weather Roundup
Issued by NWS

Home | Current Version | Previous Version | Text Only | Print | Product List | Glossary On
Versions: 1 2 3 4 5 6 7 8 9 10 11 12 13 14 15 16 17 18 19 20 21 22 23 24 25
000
ASUS42 KKEY 120810
RWRKEY

FLORIDA REGIONAL WEATHER ROUNDUP FOR THE FLORIDA KEYS
NATIONAL WEATHER SERVICE KEY WEST FLORIDA
300 AM EST TUE DEC 12 2017

...SOUTH FLORIDA AND THE KEYS...

CITY           SKY/WX    TMP DP  RH WIND       PRES   REMARKS
FORT MYERS     CLEAR     44  42  93 SE5       30.11F WCI  42
SW REGIONAL AP PTCLDY    45  45 100 CALM      30.12F FOG
NAPLES         CLEAR     46  45  96 CALM      30.12F
MIAMI          CLEAR     50  43  77 CALM      30.11F
WEST KENDALL   CLEAR     47  43  86 CALM      30.11F
HOMESTEAD      CLEAR     49  44  82 CALM      30.10F
MARATHON       CLEAR     60  41  49 N7        30.11F
KEY WEST INTL  CLEAR     57  49  74 N5        30.12F

...INTERNATIONAL WEATHER...

CITY           SKY/WX    TMP DP  RH WIND       PRES   REMARKS
NASSAU BAHAMAS PTCLDY    72  46  40 N3        30.06S
CANCUN MEXICO  CLEAR     57  57 100 NW6       30.14F
COZUMEL MEXICO PTCLDY    72  61  68 N12       30.11F

ADJACENT COASTAL WATERS...

STATION/POSITION TIME  SKY/WX   TEMP    WIND        PRES    WAVE
                                AIR SEA DIR/SP/G            HT/PER
                 (UTC)          (F)     (DEG/KT/KT) (MB)    (FT/S)
PULASKI SHOAL LI 0800            66     100/  1/  2 1019.9F
SAND KEY         0750            65                 1020.5F
LONG KEY         NOT AVBL
MOLASSES REEF    0800            60 76  360/ 11/ 13 1019.6F
FOWEY ROCKS      0800            62 77  340/ 10/ 11 1019.7F
Buoy 42097       0730               77                N/A     2/ 5

$$




USA.gov is the U.S. government's official web portal to all federal, state and local government web resources and services.